Powrót do katalogu

COSMOS 1364

AktywnyMilitariaLEO
NORAD 13167·PAYLOAD·🇷🇺 Russia

Wystrzelony May 6, 1982 z Plesetsk Cosmodrome

Loading…

Następne Przeloty (najbliższe 24 godziny)

TLE

ŚwieżeSource: Space-Track

Epoka: Sep 14, 2026, 11:07 UTC

1 13167U 82040H   26257.46375156  .00000009  00000-0  17564-3 0  9996
2 13167  74.0128 159.2291 0031746  48.4461  63.0656 12.41891106 11066

Śledź COSMOS 1364 w czasie rzeczywistym z AllMySat

Download on the App Store